Location: Lafig�re
(44.4503°N, 4.0357°E)
Time: 15:03:05
(UTC+00:00)

S-56A Canister/Altair - Pass Details

Date: 23 January 2021
Orbit: 631 x 2501 km, 38.9° (Epoch: 01 March)

Event Time Altitude Azimuth Distance (km) Brightness Sun altitude
Rises 03:34:53 0° 247° (WSW) 2,927 - -38.4°
Reaches altitude 10° 03:37:13 10° 240° (WSW) 2,003 - -38.0°
Maximum altitude 03:41:22 40° 170° (S) 973 - -37.2°
Exits shadow 03:44:13 20° 111° (ESE) 1,608 9.6 -36.7°
Drops below altitude 10° 03:46:07 10° 101° (E) 2,305 10.7 -36.4°
Sets 03:49:00 0° 94° (E) 3,437 11.8 -35.9°
